Location: Savona
(44.2830°N, 8.5000°E)
Time: 11:51:52
(UTC+02:00)

ISS - Visible Passes

Search period start: 11 May 2021 00:00
Search period end: 21 May 2021 00:00
Orbit: 418 x 421 km, 51.6° (Epoch: 11 May)

Date Brightness Start Highest point End Pass type
(mag) Time Alt. Az. Time Alt. Az. Time Alt. Az.
11 May -1.3 02:04:21 23° NNE 02:04:21 23° NNE 02:06:12 10° NE visible
11 May -1.3 03:37:53 10° NW 03:40:41 23° N 03:43:29 10° ENE visible
11 May -2.8 05:14:42 10° NW 05:18:01 51° NNE 05:21:20 10° ESE visible
12 May -0.8 01:18:16 13° NE 01:18:16 13° NE 01:18:47 10° NE visible
12 May -1.3 02:51:12 15° NW 02:53:04 22° N 02:55:48 10° NE visible
12 May -2.2 04:27:18 10° NW 04:30:30 37° NNE 04:33:41 10° E visible
13 May -1.4 02:05:02 23° NNW 02:05:26 23° N 02:08:14 10° NE visible
13 May -1.7 03:39:54 10° NW 03:42:57 30° NNE 03:45:59 10° E visible
13 May -3.8 05:16:37 10° WNW 05:19:59 69° SW 05:23:21 10° SE visible
14 May -1.3 01:18:38 23° NNE 01:18:38 23° NNE 01:20:42 10° NE visible
14 May -1.5 02:52:28 10° NW 02:55:22 25° N 02:58:15 10° ENE visible
14 May -3.6 04:29:10 10° WNW 04:32:33 76° NNE 04:35:56 10° ESE visible
14 May -1.7 21:16:33 10° SE 21:16:56 10° SE 21:17:18 10° ESE visible
14 May -3.9 22:49:50 10° SW 22:53:11 72° SSE 22:55:38 17° ENE visible
15 May -1.8 00:27:13 10° WNW 00:30:14 29° NNW 00:33:15 10° NE visible
15 May -1.3 02:04:58 10° NW 02:07:44 23° N 02:10:32 10° ENE visible
15 May -2.9 03:41:46 10° NW 03:45:05 51° NNE 03:48:23 10° ESE visible
15 May -2.7 05:18:52 10° W 05:21:43 26° SW 05:24:35 10° SSE visible
15 May -3.5 22:02:36 10° SW 22:05:48 44° SE 22:09:01 10° ENE visible
15 May -2.2 23:39:31 10° W 23:42:40 36° NNW 23:45:50 10° NE visible
16 May -1.2 01:17:22 10° NW 01:20:07 22° N 01:22:52 10° NE visible
16 May -2.3 02:54:22 10° NW 02:57:33 38° NNE 03:00:44 10° E visible
16 May -3.4 04:31:12 10° WNW 04:34:25 41° SW 04:37:36 10° SSE visible
16 May -2.8 22:51:52 10° WSW 22:55:08 49° NNW 22:58:26 10° NE visible
17 May -1.3 00:29:43 10° WNW 00:32:29 23° N 00:35:16 10° NE visible
17 May -1.8 02:06:57 10° NW 02:10:00 30° NNE 02:13:02 10° E visible
17 May -3.9 03:43:39 10° WNW 03:47:01 68° SW 03:50:22 10° SE visible
17 May -3.5 22:04:18 10° WSW 22:07:39 73° NNW 22:11:02 10° ENE visible
17 May -1.4 23:42:00 10° WNW 23:44:52 25° N 23:47:45 10° NE visible
18 May -1.5 01:19:30 10° NW 01:22:24 26° N 01:22:56 24° NNE visible
18 May -3.8 21:16:52 10° SW 21:20:12 73° SSE 21:23:34 10° ENE visible
18 May -1.7 22:54:16 10° WNW 22:57:16 29° NNW 23:00:17 10° NE visible
19 May -1.3 00:31:59 10° NW 00:34:47 23° N 00:36:31 16° NE visible
19 May -1.1 02:08:48 10° NW 02:09:26 15° NW 02:09:26 15° NW visible
19 May -2.1 22:06:33 10° W 22:09:41 36° NNW 22:12:51 10° NE visible
19 May -1.3 23:44:24 10° NW 23:47:09 22° N 23:49:53 10° NE visible
20 May -1.6 01:21:23 10° NW 01:23:17 26° NNW 01:23:17 26° NNW visible
20 May -1.3 22:56:45 10° WNW 22:59:30 23° N 23:02:17 10° NE visible
